Regional Weather Roundup
Issued by NWS

Home | Current Version | Previous Version | Graphics & Text | Print | Product List | Glossary Off
Versions: 1 2 3 4 5 6 7 8 9 10 11 12 13 14 15 16 17 18 19 20 21 22 23 24 25 26 27 28 29 30 31 32 33 34 35 36 37 38 39 40 41 42 43 44 45 46 47 48 49 50

735
ASUS43 KTOP 250259
RWRKS

WEATHER ROUNDUP FOR KANSAS
NATIONAL WEATHER SERVICE GOODLAND KS
1000 PM CDT SAT SEP 24 2016

NOTE:  "FAIR" INDICATES FEW OR NO CLOUDS BELOW 12,000 FEET WITH NO
SIGNIFICANT WEATHER AND/OR OBSTRUCTIONS TO VISIBILITY.

KSZ001>006-013>018-027>032-041>047-250400-
NORTHWEST KANSAS

CITY           SKY/WX    TMP DP  RH WIND       PRES   REMARKS
GOODLAND       PTCLDY    55  38  52 E5        30.08R
HAYS           CLOUDY    66  57  72 NE5       29.99R
HILL CITY      CLEAR     58  53  84 NW5       30.00R
RUSSELL        CLOUDY    70  67  90 NW3       29.98R
$$

KSZ061>065-074>080-084>089-250400-
SOUTHWEST KANSAS

CITY           SKY/WX    TMP DP  RH WIND       PRES   REMARKS
DODGE CITY     CLOUDY    63  60  90 SE7       30.00R
ELKHART          N/A     62  36  38 N6          N/A
GARDEN CITY    CLEAR     63  47  55 NE9       30.01R
GREAT BEND     CLOUDY    68  59  73 SE6       29.98R
LIBERAL        CLEAR     66  45  45 NE12      30.00R
$$

KSZ066>073-081>083-090>101-250400-
SOUTHEAST KANSAS

CITY           SKY/WX    TMP DP  RH WIND       PRES   REMARKS
CHANUTE        HVY RAIN  70  66  87 W17G31    30.03R FOG
COFFEYVILLE    CLOUDY    74  66  76 NW17      30.02R
HUTCHINSON     CLOUDY    67  66  97 SE6       29.98R
NEWTON         LGT RAIN N/A N/A N/A S15       29.99R
PARSONS        CLOUDY    73  65  75 NW16G22   30.03R
WICHITA INTL   TSTM      68  66  93 SE16      29.95F
WICHITA JABRA  RAIN      67  66  97 SE8       29.97F
WICHITA MCCONL LGT RAIN  67  65  94 S12       29.98F
WINFIELD       LGT RAIN  67  67 100 SE6       30.00F
$$

KSZ007>012-019>026-033>040-048>060-102>105-250400-
NORTHEAST KANSAS

CITY           SKY/WX    TMP DP  RH WIND       PRES   REMARKS
CONCORDIA      CLOUDY    68  68 100 SE6       29.97R
EMPORIA        RAIN      66  65  96 SE7       30.00F
LAWRENCE       CLOUDY    71  69  93 NE5       29.98F
MANHATTAN      TSTM      68  67  96 N7        29.95F
OLATHE IND     CLOUDY    74  70  87 N5        30.00R
OLATHE EXE     CLOUDY    77  70  79 CALM      29.99R
SALINA         CLOUDY    71  68  90 CALM      29.97S
TOPEKA BILLARD TSTM      70  67  90 SW15G31   30.03R FOG
TOPEKA FORBES  TSTM      70  67  90 VRB6      30.01R VSB 1/2
$$




USA.gov is the U.S. government's official web portal to all federal, state and local government web resources and services.